Cloud_Cover
0 0 0 0 0 0 0 0 0 0 0 0 0 94 33 5 21 0 100 69 78 40 100 89 6 99 100 100 100 100 100 100 100 100 100 67 55 8 0 2 5 0 0
0 0 0 0 0 0 0 0 0 0 0 0 0 35 78 56 84 64 100 83 54 90 100 88 38 74 99 100 100 100 100 100 100 98 49 21 0 1 1 5 5 0 0
0 0 0 0 0 0 0 0 0 0 0 0 1 33 29 70 100 100 100 88 68 100 52 100 100 96 81 92 100 100 100 99 96 32 3 2 0 2 4 0 0 0 0
3 0 0 0 0 0 0 0 0 0 0 0 0 0 0 71 100 98 80 100 100 100 100 98 100 100 99 100 100 96 100 68 5 5 5 5 5 5 5 4 0 0 0
1 0 0 0 0 0 0 0 0 0 0 0 0 0 23 100 99 55 95 96 100 97 0 63 6 47 48 5 10 100 73 5 5 5 5 5 5 5 5 5 0 0 0
0 0 0 0 0 0 0 0 0 0 0 0 0 1 48 79 14 29 81 91 100 95 16 5 3 5 5 5 58 78 31 5 5 5 5 5 5 5 5 0 0 0 2
0 0 0 0 0 0 0 0 0 2 0 0 0 39 64 87 35 100 100 100 100 100 5 0 0 5 5 5 30 6 5 5 5 5 6 5 5 5 5 1 0 0 0
0 0 5 2 0 5 3 0 0 0 0 0 5 36 83 100 39 44 100 100 100 62 72 0 0 1 2 5 5 5 5 5 7 21 37 14 5 5 5 0 0 0 0
5 0 5 46 4 0 5 1 0 0 2 0 12 43 94 100 44 100 100 98 96 45 26 0 0 2 5 5 5 5 5 5 5 5 5 5 5 5 0 0 0 0 0
0 0 4 37 5 0 4 2 0 5 5 2 2 46 100 100 100 100 100 100 100 83 5 5 5 5 5 5 5 5 5 5 11 5 5 5 5 2 0 0 0 0 0
1 0 2 51 5 0 0 0 0 5 5 5 5 33 100 100 100 100 100 100 94 28 5 5 5 5 5 5 16 5 5 5 5 5 5 5 5 0 0 0 0 0 0
4 5 5 5 39 13 3 0 0 2 11 5 5 62 100 100 100 98 100 78 100 63 5 56 57 20 23 75 7 5 5 5 5 5 5 5 0 0 0 0 0 0 5
5 5 16 51 66 31 10 0 1 6 88 16 68 98 100 100 100 100 93 100 100 59 82 88 78 81 90 56 7 5 5 5 5 5 3 0 0 0 0 0 5 17 68
53 5 56 74 78 49 5 9 13 82 90 100 100 100 100 83 99 92 100 100 95 98 97 100 98 99 81 40 5 5 5 5 4 0 0 0 0 0 5 5 56 76 97
90 60 66 75 68 98 100 55 75 100 100 100 100 100 100 100 100 100 100 100 100 99 100 100 100 99 64 44 20 5 5 5 5 5 0 0 1 5 17 77 89 100 98
100 94 100 70 100 100 100 100 100 100 100 100 100 99 100 100 100 100 100 100 100 99 100 100 95 67 65 60 13 5 5 5 3 0 0 0 5 5 73 97 100 100 100
100 100 88 81 100 100 100 100 100 100 100 100 100 100 100 100 100 100 100 100 100 98 100 93 88 87 56 70 5 5 5 4 0 0 1 5 5 67 91 100 100 100 98
100 98 82 98 100 100 100 100 100 100 100 100 100 100 100 100 100 100 100 100 100 92 100 89 88 76 81 64 12 5 3 0 0 5 5 5 64 83 100 100 75 99 98
59 39 66 100 100 100 100 100 100 100 100 100 100 100 100 100 100 100 100 100 99 95 100 88 95 82 44 5 5 5 0 0 4 5 15 63 87 100 100 98 90 100 97
96 71 100 100 98 88 78 81 100 98 98 100 100 100 100 100 100 100 99 93 100 100 86 82 78 44 5 5 3 5 0 4 5 5 48 82 99 99 100 100 100 99 93
100 100 98 100 99 100 100 100 100 100 100 100 100 100 100 100 100 100 100 100 94 100 77 57 5 5 5 5 2 5 5 5 18 63 78 82 90 100 100 98 100 100 100
100 99 96 100 100 100 100 100 100 100 100 100 100 100 100 100 100 94 99 76 39 9 5 5 5 1 0 0 0 5 45 64 85 98 88 75 100 77 57 52 63 100 100
100 100 100 100 100 100 100 100 100 100 100 100 100 100 100 100 94 63 9 5 8 5 5 5 5 5 1 2 4 5 38 68 99 100 91 99 65 10 5 10 96 98 99
100 100 100 100 100 100 100 100 100 100 100 100 100 100 88 34 5 5 5 5 5 5 5 5 5 5 5 5 2 5 63 84 99 99 98 35 19 5 23 11 40 94 98
100 100 100 100 100 100 100 100 100 100 100 100 72 18 5 5 5 5 5 10 13 5 5 5 5 5 5 0 12 70 95 100 99 99 57 5 5 5 22 64 90 98 99
100 100 100 100 100 100 100 100 100 100 85 22 6 5 5 5 5 5 5 5 5 5 5 5 5 4 5 9 74 100 100 100 88 74 5 38 85 98 95 100 98 98 97